| time (UTC) | temp C | wind direction | speed KPH | gust KPH | rain 1hr cm | rain 24hr cm | rain mn cm | humidity % | barometer mb |
| 20260506150010 | 11 | 335 | 3.2 | 14.5 | 0.25 | 0.25 | 0.25 | 83 | 1014.9 |
| 20260506144511 | 11 | 26 | 0.0 | 12.9 | 0.03 | 0.03 | 0.03 | 82 | 1016.2 |
| 20260506143004 | 11 | 32 | 1.6 | 12.9 | 0.00 | 0.00 | 0.00 | 81 | 1015.5 |
| 20260506141506 | 11 | 26 | 1.6 | 16.1 | 0.00 | 0.00 | 0.00 | 81 | 1013.9 |
| 20260506140100 | 11 | 355 | 4.8 | 16.1 | 0.00 | 0.00 | 0.00 | 79 | 1014.5 |
| 20260506134557 | 11 | 21 | 6.4 | 14.5 | 0.00 | 0.00 | 0.00 | 79 | 1014.5 |
| 20260506133107 | 11 | 28 | 3.2 | 17.7 | 0.00 | 0.00 | 0.00 | 79 | 1013.9 |
| 20260506131603 | 11 | 26 | 3.2 | 17.7 | 0.00 | 0.00 | 0.00 | 79 | 1013.5 |
| 20260506130049 | 11 | 24 | 4.8 | 17.7 | 0.00 | 0.00 | 0.00 | 78 | 1013.3 |
| 20260506124544 | 11 | 17 | 6.4 | 24.1 | 0.00 | 0.00 | 0.00 | 77 | 1012.8 |
| 20260506123041 | 12 | 280 | 4.8 | 20.9 | 0.00 | 0.00 | 0.00 | 76 | 1012.8 |
| 20260506121542 | 12 | 36 | 6.4 | 17.7 | 0.00 | 0.00 | 0.00 | 74 | 1012.7 |
| 20260506120051 | 12 | 5 | 4.8 | 19.3 | 0.00 | 0.00 | 0.00 | 73 | 1012.4 |
| 20260506114534 | 12 | 15 | 4.8 | 17.7 | 0.00 | 0.00 | 0.00 | 72 | 1012.4 |
| 20260506113029 | 12 | 9 | 4.8 | 14.5 | 0.00 | 0.00 | 0.00 | 71 | 1012.0 |
| 20260506111525 | 13 | 329 | 3.2 | 19.3 | 0.00 | 0.00 | 0.00 | 72 | 1011.8 |
| 20260506110025 | 13 | 20 | 3.2 | 9.7 | 0.00 | 0.00 | 0.00 | 72 | 1011.3 |
| 20260506104531 | 13 | 360 | 4.8 | 14.5 | 0.00 | 0.00 | 0.00 | 72 | 1011.1 |
| 20260506103035 | 13 | 355 | 3.2 | 17.7 | 0.00 | 0.00 | 0.00 | 72 | 1011.0 |
| 20260506101515 | 13 | 350 | 1.6 | 12.9 | 0.00 | 0.00 | 0.00 | 72 | 1010.6 |
| 20260506100012 | 13 | 343 | 1.6 | 9.7 | 0.00 | 0.00 | 0.00 | 73 | 1010.3 |
| 20260506094512 | 13 | 13 | 1.6 | 9.7 | 0.00 | 0.00 | 0.00 | 73 | 1010.1 |
| 20260506093018 | 13 | 355 | 1.6 | 9.7 | 0.00 | 0.00 | 0.00 | 72 | 1010.1 |
| 20260506091508 | 13 | 5 | 3.2 | 12.9 | 0.00 | 0.00 | 0.00 | 72 | 1009.9 |
| 20260506090006 | 14 | 27 | 3.2 | 19.3 | 0.00 | 0.00 | 0.00 | 73 | 1010.0 |
| 20260506084504 | 14 | 344 | 1.6 | 14.5 | 0.00 | 0.00 | 0.00 | 73 | 1009.9 |
| 20260506083002 | 14 | 360 | 1.6 | 8.0 | 0.00 | 0.00 | 0.00 | 74 | 1009.6 |
| 20260506081502 | 14 | 33 | 3.2 | 9.7 | 0.00 | 0.00 | 0.00 | 73 | 1009.6 |
| 20260506073058 | 14 | 16 | 3.2 | 9.7 | 0.00 | 0.00 | 0.00 | 75 | 1009.5 |
| 20260506071559 | 14 | 5 | 3.2 | 14.5 | 0.00 | 0.00 | 0.00 | 75 | 1009.1 |
| 20260506061547 | 15 | 21 | 4.8 | 8.0 | 0.00 | 0.00 | 0.00 | 75 | 1009.1 |
| 20260506044537 | 17 | 296 | 4.8 | 17.7 | 0.00 | 0.00 | 0.00 | 72 | 1009.0 |
| 20260506043030 | 17 | 336 | 8.0 | 20.9 | 0.00 | 0.00 | 0.00 | 71 | 1008.8 |
| 20260506041529 | 17 | 340 | 4.8 | 16.1 | 0.00 | 0.00 | 0.00 | 72 | 1008.9 |
| 20260506040032 | 18 | 31 | 6.4 | 16.1 | 0.00 | 0.00 | 0.00 | 71 | 1009.0 |
| 20260506034522 | 18 | 345 | 3.2 | 17.7 | 0.00 | 0.00 | 0.00 | 70 | 1008.7 |
| 20260506033018 | 18 | 15 | 3.2 | 14.5 | 0.00 | 0.00 | 0.00 | 69 | 1008.3 |
| 20260506031517 | 18 | 327 | 8.0 | 20.9 | 0.00 | 0.00 | 0.00 | 68 | 1008.0 |
| 20260506030014 | 19 | 5 | 4.8 | 17.7 | 0.00 | 0.00 | 0.00 | 68 | 1007.5 |
| 20260506024511 | 19 | 305 | 4.8 | 19.3 | 0.00 | 0.00 | 0.00 | 68 | 1007.4 |
| 20260506023009 | 20 | 299 | 6.4 | 16.1 | 0.00 | 0.00 | 0.00 | 67 | 1007.2 |
| 20260506021505 | 20 | 300 | 6.4 | 12.9 | 0.00 | 0.00 | 0.00 | 65 | 1006.7 |
| 20260506020004 | 20 | 329 | 1.6 | 22.5 | 0.00 | 0.00 | 0.00 | 65 | 1006.6 |
| 20260506014601 | 21 | 336 | 3.2 | 14.5 | 0.00 | 0.00 | 0.00 | 66 | 1006.3 |
| 20260506013109 | 21 | 21 | 4.8 | 14.5 | 0.00 | 0.00 | 0.00 | 64 | 1005.6 |
| 20260506011615 | 21 | 360 | 4.8 | 20.9 | 0.00 | 0.00 | 0.00 | 64 | 1005.4 |
| 20260506010059 | 22 | 326 | 6.4 | 17.7 | 0.00 | 0.00 | 0.00 | 63 | 1005.1 |
| 20260506004554 | 22 | 5 | 1.6 | 12.9 | 0.00 | 0.00 | 0.00 | 63 | 1004.7 |
| 20260506003055 | 22 | 31 | 3.2 | 9.7 | 0.00 | 0.00 | 0.00 | 62 | 1004.6 |
| 20260506001555 | 23 | 25 | 3.2 | 17.7 | 0.00 | 0.00 | 0.00 | 60 | 1004.4 |
| 20260506000053 | 23 | 26 | 3.2 | 12.9 | 0.00 | 0.00 | 0.00 | 61 | 1004.2 |
| 20260505234553 | 23 | 325 | 4.8 | 19.3 | 0.00 | 0.00 | 0.00 | 60 | 1004.0 |
| 20260505233050 | 24 | 9 | 4.8 | 14.5 | 0.00 | 0.00 | 0.00 | 58 | 1004.0 |
| 20260505231605 | 25 | 5 | 8.0 | 20.9 | 0.00 | 0.00 | 0.00 | 57 | 1003.9 |
| 20260505230049 | 26 | 16 | 4.8 | 16.1 | 0.00 | 0.00 | 0.00 | 56 | 1003.6 |
| 20260505224548 | 26 | 304 | 6.4 | 19.3 | 0.00 | 0.00 | 0.00 | 57 | 1003.6 |
| 20260505223047 | 27 | 86 | 3.2 | 24.1 | 0.00 | 0.00 | 0.00 | 56 | 1003.2 |
| 20260505221547 | 28 | 360 | 4.8 | 17.7 | 0.00 | 0.00 | 0.00 | 47 | 1003.1 |
| 20260505220051 | 30 | 5 | 3.2 | 12.9 | 0.00 | 0.00 | 0.00 | 47 | 1002.9 |
| 20260505214555 | 30 | 344 | 4.8 | 14.5 | 0.00 | 0.00 | 0.00 | 44 | 1002.8 |
| 20260505213044 | 31 | 28 | 4.8 | 17.7 | 0.00 | 0.00 | 0.00 | 44 | 1003.0 |
| 20260505211544 | 32 | 277 | 1.6 | 12.9 | 0.00 | 0.00 | 0.00 | 46 | 1002.9 |
| 20260505210045 | 32 | 253 | 3.2 | 14.5 | 0.00 | 0.00 | 0.00 | 42 | 1003.0 |
| 20260505204542 | 32 | 238 | 4.8 | 12.9 | 0.00 | 0.00 | 0.00 | 43 | 1003.1 |
| 20260505203058 | 32 | 281 | 3.2 | 12.9 | 0.00 | 0.00 | 0.00 | 49 | 1003.3 |
| 20260505201544 | 31 | 242 | 9.7 | 19.3 | 0.00 | 0.00 | 0.00 | 44 | 1003.3 |
| 20260505200046 | 31 | 234 | 8.0 | 17.7 | 0.00 | 0.00 | 0.00 | 45 | 1003.5 |
| 20260505194537 | 31 | 250 | 4.8 | 19.3 | 0.00 | 0.00 | 0.00 | 47 | 1003.7 |
| 20260505193036 | 31 | 221 | 9.7 | 17.7 | 0.00 | 0.00 | 0.00 | 46 | 1003.6 |
| 20260505191533 | 31 | 200 | 11.3 | 22.5 | 0.00 | 0.00 | 0.00 | 48 | 1003.7 |
| 20260505190034 | 30 | 240 | 12.9 | 19.3 | 0.00 | 0.00 | 0.00 | 48 | 1003.6 |
| 20260505184530 | 30 | 246 | 12.9 | 19.3 | 0.00 | 0.00 | 0.00 | 53 | 1003.5 |
| 20260505183026 | 29 | 166 | 11.3 | 19.3 | 0.00 | 0.00 | 0.00 | 55 | 1003.7 |
| 20260505181521 | 28 | 237 | 9.7 | 19.3 | 0.00 | 0.00 | 0.00 | 59 | 1003.8 |
| 20260505180021 | 28 | 225 | 11.3 | 20.9 | 0.00 | 0.00 | 0.00 | 60 | 1003.9 |
| 20260505174527 | 28 | 294 | 11.3 | 20.9 | 0.00 | 0.00 | 0.00 | 62 | 1004.0 |
| 20260505173015 | 27 | 246 | 9.7 | 22.5 | 0.00 | 0.00 | 0.00 | 63 | 1004.0 |
| 20260505171515 | 28 | 223 | 9.7 | 24.1 | 0.00 | 0.00 | 0.00 | 62 | 1004.0 |
| 20260505170017 | 27 | 208 | 8.0 | 19.3 | 0.00 | 0.00 | 0.00 | 64 | 1004.1 |
| 20260505164511 | 27 | 243 | 8.0 | 24.1 | 0.00 | 0.00 | 0.00 | 64 | 1004.1 |
| 20260505163013 | 27 | 254 | 11.3 | 25.7 | 0.00 | 0.00 | 0.00 | 63 | 1004.1 |
| 20260505161504 | 26 | 249 | 9.7 | 25.7 | 0.00 | 0.00 | 0.00 | 65 | 1004.0 |
| 20260505153103 | 25 | 120 | 8.0 | 25.7 | 0.00 | 0.00 | 0.00 | 71 | 1003.8 |
| 20260505151603 | 24 | 261 | 9.7 | 19.3 | 0.00 | 0.00 | 0.00 | 73 | 1003.6 |